CAPE
996 1112 1330 1288 1546 1203 1192 1539 1135 987 868 970 1690 1054 1060 1114 1094 1070 942 963 907 934 1054 914 789 752 1236 1310 828 786 461 302 547 842 841 948 1127 937 778 895 714 1070
749 926 1003 1048 1316 1475 1298 964 944 1044 1063 918 1042 1580 1040 1037 1195 1210 1080 1107 1095 1016 731 727 611 694 765 1002 973 1111 659 621 507 669 536 522 1036 566 637 979 704 750
613 610 780 1058 924 913 1532 960 814 733 731 718 908 1361 1124 925 938 917 1004 1152 946 1209 970 884 754 654 652 777 904 864 674 545 466 1217 1045 1135 577 1124 1060 977 754 1142
202 407 652 857 977 1032 748 1385 810 537 704 730 767 831 881 1010 840 1086 1027 993 963 873 802 1239 1204 738 521 624 702 793 701 628 677 1034 1235 1442 1426 742 685 1190 1230 652
116 241 516 759 856 915 720 558 677 615 590 553 669 741 696 921 1035 1067 912 754 1091 840 1222 1125 1091 1099 890 932 510 629 512 568 830 1120 1260 596 639 622 628 918 988 840
78 228 354 641 785 870 1094 828 566 660 620 442 498 577 589 720 1223 1143 713 874 502 1148 700 587 1162 988 1015 603 526 562 656 707 900 882 580 484 403 251 513 655 1164 790
49 106 202 309 626 856 1061 981 754 702 662 692 633 370 674 572 872 1265 1148 625 628 450 697 818 673 1107 578 689 526 553 618 653 810 794 620 431 368 367 516 1248 940 851
32 59 63 156 338 567 614 574 685 869 903 744 577 608 579 700 854 1085 1339 906 581 1023 584 892 655 549 512 576 620 564 590 558 712 565 422 457 518 422 369 937 1221 907
12 11 10 20 62 210 296 382 644 712 842 834 749 635 700 1050 791 886 958 966 874 863 758 1107 857 785 655 561 571 435 486 641 616 492 400 434 458 465 523 830 1188 928
6 6 6 6 7 16 55 131 165 124 781 840 887 899 681 1291 1228 1118 1132 1269 861 521 744 930 1079 1214 806 684 846 432 579 462 428 402 388 383 204 210 253 426 812 934
3 4 6 7 5 7 9 9 96 218 308 517 704 833 878 953 1099 910 1444 1213 727 598 589 637 979 830 1188 937 830 841 699 719 702 450 412 391 412 245 273 310 872 882
0 2 1 2 3 3 5 5 7 6 102 326 421 593 792 904 844 1264 1096 1134 870 484 665 463 352 499 711 698 768 1010 880 788 724 940 525 402 447 312 250 376 582 849
0 0 1 2 4 3 2 4 4 5 5 67 285 446 590 781 909 655 1164 964 896 735 588 515 542 789 1314 1235 1259 794 1014 929 816 638 509 411 341 328 449 744 727 1058
0 1 0 0 4 3 4 4 3 4 4 4 106 395 548 567 696 761 633 790 868 753 747 519 356 458 707 1033 1250 1241 1325 1184 1053 935 422 342 515 687 449 312 869 781
0 0 3 0 1 2 2 3 2 3 1 0 0 36 214 527 642 595 600 524 860 1027 732 729 690 711 594 490 997 1253 1092 999 1025 661 687 520 565 728 603 1136 763 1141
0 0 0 1 2 2 3 3 2 2 1 0 25 32 127 180 196 388 652 530 732 852 710 668 632 763 453 498 540 618 943 754 788 741 724 774 538 675 875 1012 1226 1147
1 0 0 1 1 4 6 2 4 4 2 1 1 18 86 138 142 134 215 234 453 350 416 910 775 698 544 497 529 512 846 1089 1250 1033 500 527 528 545 860 1118 1235 877
1 1 1 2 1 1 4 2 4 4 3 4 3 1 2 7 1 1 196 268 240 217 236 324 343 348 362 472 488 487 389 574 741 576 354 532 762 723 521 1191 934 614
5 3 3 2 4 3 2 4 3 4 4 4 3 4 3 13 32 5 1 152 214 210 199 215 223 224 453 460 481 462 420 411 632 540 304 307 616 534 657 952 699 571
3 3 3 2 3 2 3 1 2 3 4 3 4 4 5 3 9 29 40 26 31 2 4 40 207 352 403 387 363 390 392 365 317 456 219 155 371 653 847 1278 1460 1110
2 3 4 3 4 2 3 2 2 4 2 3 2 3 3 4 2 28 40 41 34 20 4 5 0 204 217 240 283 299 315 259 172 149 324 324 491 545 730 585 853 728
1 2 3 5 3 4 2 2 1 1 3 2 1 1 2 2 1 2 2 8 23 38 35 45 8 6 74 102 86 292 248 209 170 221 141 380 619 484 694 495 517 781
2 2 4 4 4 5 4 5 3 2 2 1 2 3 2 0 1 2 0 1 1 25 60 18 15 35 4 2 142 173 185 131 204 215 113 99 1 517 548 342 254 254
1 3 4 5 7 5 5 5 4 3 1 0 0 1 2 2 2 2 1 2 1 0 29 45 37 24 14 13 186 187 162 128 99 99 58 26 171 490 133 89 360 346
0 2 4 6 7 6 6 4 3 4 2 0 0 0 0 1 0 0 0 1 2 2 8 36 59 47 27 63 11 113 47 81 32 36 92 171 161 102 118 180 216 191
1 2 5 9 8 10 8 7 6 4 6 4 1 0 3 1 1 2 1 0 0 1 4 1 23 26 24 20 82 110 125 24 35 13 26 136 80 108 95 118 132 146
Wind_Speed
25 26 27 30 32 32 30 31 31 28 23 19 23 25 25 25 24 22 21 20 21 22 21 21 20 16 16 18 20 22 23 16 15 15 16 16 18 20 16 15 14 15
26 26 28 29 32 34 31 29 29 28 25 21 18 23 23 23 23 22 21 19 19 21 22 22 24 19 17 19 18 20 23 19 14 13 16 17 19 18 15 14 15 16
28 28 27 27 29 29 30 30 29 26 25 23 18 21 23 22 20 20 20 19 19 22 23 19 23 23 22 21 20 21 22 20 15 17 18 18 15 17 18 18 17 17
28 28 28 27 28 30 28 29 31 28 27 27 22 19 19 21 19 17 18 19 20 21 23 22 24 27 25 22 22 23 23 20 18 19 19 19 18 19 17 18 18 18
27 27 27 26 28 32 34 29 28 28 27 26 21 21 20 17 17 16 16 18 21 21 23 24 23 27 27 25 23 23 24 21 19 20 21 21 19 21 18 18 18 18
nan 26 25 27 30 31 32 32 31 31 28 27 22 20 18 16 17 17 16 17 20 23 23 21 25 25 27 27 24 24 24 22 20 21 18 19 20 16 18 17 20 20
nan 24 25 26 28 31 31 31 31 29 27 28 27 20 15 14 15 17 17 18 18 24 20 23 21 27 28 27 25 25 25 22 20 20 17 18 21 15 18 23 22 22
nan nan nan 26 26 27 30 28 27 27 25 27 26 21 18 17 18 16 20 19 19 23 22 26 28 25 28 28 25 24 23 22 22 23 20 20 19 17 24 25 23 21
nan nan nan nan nan 24 24 23 21 21 21 22 23 21 21 24 20 19 20 27 24 23 23 28 28 28 27 27 25 23 22 23 27 29 25 21 21 17 23 26 23 22
nan nan nan nan nan nan nan 19 19 17 17 18 19 19 21 24 22 18 18 21 23 23 21 24 27 28 28 26 25 23 25 27 27 24 24 26 25 21 20 21 23 23
nan nan nan nan nan nan nan nan nan 16 15 15 17 18 19 21 22 18 20 22 24 25 23 20 23 24 27 25 24 23 24 26 25 25 25 24 23 21 18 19 23 24
nan nan nan nan nan nan nan nan nan nan 11 11 14 16 18 20 20 21 20 20 22 25 26 24 20 18 22 23 24 24 25 27 26 26 26 24 23 22 17 18 24 26
nan nan nan nan nan nan nan nan nan nan nan nan 6 9 12 15 18 18 18 20 21 24 26 26 20 17 22 25 27 25 26 28 27 27 27 26 25 17 15 27 26 29
nan nan nan nan nan nan nan nan nan nan nan nan 5 3 3 6 11 14 14 14 18 22 26 29 27 21 18 22 27 27 28 30 29 26 24 27 25 23 24 23 25 27
nan nan nan nan nan nan nan nan nan nan nan nan nan nan 7 4 6 9 8 6 12 18 22 28 29 27 22 21 23 27 28 29 30 27 26 27 27 26 26 27 26 27
nan nan nan nan nan nan nan nan nan nan nan nan nan nan 12 12 11 8 5 7 7 13 19 24 27 27 27 25 22 22 26 27 30 29 26 24 28 29 27 25 26 29
nan nan nan nan nan nan nan nan nan nan nan nan nan nan nan 16 16 16 16 12 11 11 13 22 25 25 26 25 23 23 27 29 30 32 31 25 26 26 25 25 27 30
nan nan nan nan nan nan nan nan nan nan nan nan nan nan nan nan nan nan 18 18 18 18 15 21 24 28 24 26 23 23 27 28 29 30 31 30 26 21 23 26 28 32
nan nan nan nan nan nan nan nan nan nan nan nan nan nan nan nan nan nan nan 21 21 21 22 21 30 28 26 28 27 27 29 29 27 29 27 25 23 22 22 29 31 32
nan nan nan nan nan nan nan nan nan nan nan nan nan nan nan nan nan nan nan nan nan nan nan nan 29 26 26 26 26 27 29 31 27 27 27 27 23 24 29 33 32 33
nan nan nan nan nan nan nan nan nan nan nan nan nan nan nan nan nan nan nan nan nan nan nan nan nan 28 27 26 25 27 30 27 27 28 29 30 26 27 30 35 32 34
nan nan nan nan nan nan nan nan nan nan nan nan nan nan nan nan nan nan nan nan nan nan nan nan nan nan nan 27 nan 26 26 25 26 29 29 31 29 29 32 36 35 33
nan nan nan nan nan nan nan nan nan nan nan nan nan nan nan nan nan nan nan nan nan nan nan nan nan nan nan nan 25 23 24 27 29 31 33 nan nan 28 41 52 48 43
nan nan nan nan nan nan nan nan nan nan nan nan nan nan nan nan nan nan nan nan nan nan nan nan nan nan nan nan 29 22 25 26 nan nan nan nan 30 38 50 nan 51 53
nan nan nan nan nan nan nan nan nan nan nan nan nan nan nan nan nan nan nan nan nan nan nan nan nan nan nan nan nan 26 nan nan nan nan nan 40 43 50 53 52 50 54
nan nan nan nan nan nan nan nan nan nan nan nan nan nan nan nan nan nan nan nan nan nan nan nan nan nan nan nan nan 33 31 nan nan nan nan 40 nan 51 nan 53 53 53
Wind_Direction
288 290 293 296 294 292 294 295 292 294 292 285 279 280 283 282 287 294 292 279 275 273 270 273 279 279 268 259 256 247 250 252 252 241 260 272 267 261 257 269 267 267
282 285 288 292 296 300 296 292 290 288 291 285 277 272 276 280 278 281 289 291 286 282 274 270 267 269 266 260 255 247 251 255 258 255 270 282 269 265 263 269 268 271
279 279 282 285 290 296 294 289 281 273 277 288 284 270 268 272 273 273 279 283 284 283 275 271 271 269 264 258 252 249 248 250 254 260 263 266 264 262 264 271 276 278
277 277 279 284 284 290 291 288 290 289 280 279 283 277 267 265 266 270 274 279 276 279 287 286 273 267 266 259 249 247 247 242 246 257 256 251 251 255 259 260 265 274
276 274 278 279 282 284 286 285 281 282 290 284 275 274 275 267 266 267 267 269 272 270 282 285 274 267 267 263 253 248 247 239 245 251 247 244 241 237 244 259 270 276
nan 276 278 279 278 280 285 283 285 288 289 293 287 269 262 258 259 262 261 266 270 269 274 287 283 272 265 266 263 257 253 250 251 250 246 244 243 247 255 267 272 277
nan 277 275 279 279 280 286 288 288 287 288 292 281 270 258 264 269 263 268 269 269 272 271 273 277 272 270 271 266 259 255 254 255 254 246 240 240 245 269 269 272 274
nan nan nan 276 276 282 287 292 293 296 294 289 284 272 270 253 232 249 260 268 267 262 268 282 273 272 269 270 269 264 262 258 256 253 246 240 244 241 264 269 268 272
nan nan nan nan nan 285 289 289 289 293 293 285 279 279 270 264 253 231 229 240 235 248 259 263 275 276 271 274 274 275 271 263 252 246 243 243 246 254 258 262 266 267
nan nan nan nan nan nan nan 298 300 299 289 272 255 247 251 253 250 243 238 241 245 242 240 260 271 277 276 273 276 274 267 262 258 256 252 248 246 236 249 262 268 273
nan nan nan nan nan nan nan nan nan 311 300 266 244 232 235 239 241 239 243 245 243 240 251 259 266 277 277 271 268 267 263 260 258 258 254 252 248 243 245 261 268 271
nan nan nan nan nan nan nan nan nan nan 302 274 241 229 229 233 238 242 243 240 238 239 242 248 255 261 277 272 267 267 263 255 253 254 254 250 245 238 237 274 271 274
nan nan nan nan nan nan nan nan nan nan nan nan 251 229 222 226 232 233 239 237 238 243 245 248 246 261 265 269 271 270 266 261 255 250 250 251 245 240 249 251 262 269
nan nan nan nan nan nan nan nan nan nan nan nan 263 242 245 226 219 230 230 231 234 236 243 251 254 249 253 265 269 266 262 260 258 254 254 255 248 244 247 258 263 266
nan nan nan nan nan nan nan nan nan nan nan nan nan nan 254 250 250 227 230 236 243 239 242 251 252 252 252 254 261 265 260 258 260 260 257 260 260 256 256 258 260 262
nan nan nan nan nan nan nan nan nan nan nan nan nan nan 259 250 239 236 261 285 261 251 253 255 252 255 258 255 258 251 255 253 256 259 260 258 260 256 258 264 264 261
nan nan nan nan nan nan nan nan nan nan nan nan nan nan nan 256 254 245 239 238 253 267 263 261 260 258 254 258 270 260 248 250 248 251 256 252 249 252 261 268 267 267
nan nan nan nan nan nan nan nan nan nan nan nan nan nan nan nan nan nan 254 251 250 255 267 266 262 250 245 253 265 272 263 252 248 245 246 252 261 255 255 267 270 266
nan nan nan nan nan nan nan nan nan nan nan nan nan nan nan nan nan nan nan 255 256 257 257 258 274 250 244 247 247 245 250 248 246 247 242 240 260 266 264 272 272 267
nan nan nan nan nan nan nan nan nan nan nan nan nan nan nan nan nan nan nan nan nan nan nan nan 272 250 242 244 247 245 242 244 247 245 241 235 236 255 258 259 259 262
nan nan nan nan nan nan nan nan nan nan nan nan nan nan nan nan nan nan nan nan nan nan nan nan nan 249 246 244 248 249 249 251 252 248 245 245 238 244 253 256 257 256
nan nan nan nan nan nan nan nan nan nan nan nan nan nan nan nan nan nan nan nan nan nan nan nan nan nan nan 246 nan 254 260 264 260 252 247 246 242 254 258 261 258 258
nan nan nan nan nan nan nan nan nan nan nan nan nan nan nan nan nan nan nan nan nan nan nan nan nan nan nan nan 247 254 264 266 261 252 245 nan nan 243 255 247 244 244
nan nan nan nan nan nan nan nan nan nan nan nan nan nan nan nan nan nan nan nan nan nan nan nan nan nan nan nan 242 244 261 264 nan nan nan nan 253 248 248 nan 243 235
nan nan nan nan nan nan nan nan nan nan nan nan nan nan nan nan nan nan nan nan nan nan nan nan nan nan nan nan nan 237 nan nan nan nan nan 254 250 244 241 241 241 239
nan nan nan nan nan nan nan nan nan nan nan nan nan nan nan nan nan nan nan nan nan nan nan nan nan nan nan nan nan 239 245 nan nan nan nan 257 nan 240 nan 241 240 241